OBJECT V, 59072

Orbit data source: Space-Track

You're viewing an Uncataloged Satellite

Recently launched and/or uncataloged satellites may have evolving metadata. Metadata may include but not limited to: Owner, Maufacturer, Bus, Motor, and Mission.

OBJECT V, 59072 is a satellite in LEO that was launched on Thu, 29 Feb 2024 UTC via a SOYUZ-2-1B launch vehicle from the Vostochny Cosmodrome (VOSTO). Unknown objects in Earth's orbit typically refer to objects detected orbiting the Earth but have not yet been identified or cataloged. These objects could be anything from previously untracked satellites, spent rocket stages, debris from satellite collisions, or even natural meteoroids temporarily captured by Earth's gravity.

Loading next visibility...
Identifier
59072, 2024-039V
Orbit
LEO
Country
Flag of TBDTBD
Related business
Manufacturer
NPO PM
Mission
Operational Commercial Communications
Bus & Motor
MARAFON, Unknown motor
Mass
50 kg wet, 50 kg dry
Launch date (UTC)
2024-02-29 (2 years ago)
Launch vehicle
SOYUZ-2-1B
Launch site
Vostochny Cosmodrome (VOSTO)
Object type
Unknown
Shape & HBR
Box, 0.3 m
Radar Cross Section
0.255 m², Medium (>0.1 m² and < 1m²)

Expand to show TLE details & history
Last TLE update: 7 hours ago

TLE from 7 hours ago
0 OBJECT V
1 59072U 24039V   26124.22010240  .00000286  00000-0  75942-4 0  9994
2 59072  88.9785 289.1533 0018671 121.2538 239.0498 14.45990413114838
Epoch: 2026-05-04T05:16Z
TLE epoch observation values (Epoch: 2026-05-04T05:16:56.847Z)
Latitude
-0.00008°
Longitude
-12.19599°
Altitude
748.718 km
Speed
7.477 km/s
True Right ascension
19h 16m 36s
True Declination
0° 00' 00"
Sunlit
Object was in daylight at epoch
Visualization orbit readout
Latitude
Unknown
Longitude
Unknown
Altitude
Unknown
Speed
Unknown
Apparent Right ascension
Unknown
Apparent Declination
Unknown
Sunlit
N/A
Visualization observer readout
Local Sidereal Time
19:39:31
Azimuth
Unknown
Elevation
Unknown
Doppler factor
Unknown
Orbital elements
Apogee altitude
748.971 km
Perigee altitude
722.406 km
Semi-major axis
7,113.826 km
Eccentricity
0.00187
Inclination
88.9785°
RAAN
289.1533°
Arg. of periapsis
121.2538°
True anomaly
238.86653°
Mean anomaly
239.0498°
Eccentric anomaly
238.95814°
Mean motion
3.61733 °/min
Orbital period
99.52 mins
BSTAR
0.000075942
Loading maneuver chart data...
Computing Atmospheric mass density...
Loading historical data...
Loading historical data...
Loading historical data...
Loading historical data...
Loading historical data...
Loading historical data...
Loading historical data...

Documentation

Showing up to 5 results
|